| time (UTC) | temp F | wind direction | speed MPH | gust MPH | rain 1hr in | rain 24hr in | rain mn in | humidity % | barometer mb |
| 20260505170052 | 53 | 340 | 7.0 | 11.0 | 0.00 | 0.01 | 0.01 | 75 | 1013.2 |
| 20260505164541 | 53 | 288 | 6.0 | 12.0 | 0.00 | 0.01 | 0.01 | 75 | 1013.2 |
| 20260505163037 | 53 | 308 | 8.0 | 11.0 | 0.00 | 0.01 | 0.01 | 75 | 1013.2 |
| 20260505161536 | 53 | 264 | 7.0 | 13.0 | 0.00 | 0.01 | 0.01 | 75 | 1013.2 |
| 20260505153037 | 53 | 323 | 3.0 | 8.0 | 0.00 | 0.01 | 0.01 | 74 | 1013.2 |
| 20260505151550 | 53 | 354 | 2.0 | 5.0 | 0.00 | 0.01 | 0.01 | 76 | 1013.1 |
| 20260505124523 | 55 | 275 | 6.0 | 11.0 | 0.00 | 0.01 | 0.01 | 76 | 1013.5 |
| 20260505123022 | 54 | 332 | 4.0 | 9.0 | 0.00 | 0.01 | 0.01 | 79 | 1013.4 |
| 20260505121523 | 53 | 344 | 4.0 | 11.0 | 0.00 | 0.01 | 0.01 | 79 | 1013.5 |
| 20260505120021 | 55 | 336 | 8.0 | 11.0 | 0.00 | 0.01 | 0.01 | 77 | 1013.5 |
| 20260505114520 | 55 | 25 | 4.0 | 12.0 | 0.00 | 0.01 | 0.01 | 79 | 1013.6 |
| 20260505113021 | 54 | 354 | 4.0 | 9.0 | 0.00 | 0.01 | 0.01 | 79 | 1013.6 |
| 20260505111516 | 54 | 274 | 3.0 | 6.0 | 0.00 | 0.01 | 0.01 | 80 | 1013.6 |
| 20260505101513 | 50 | 342 | 10.0 | 13.0 | 0.00 | 0.01 | 0.01 | 85 | 1013.7 |
| 20260505100011 | 51 | 332 | 6.0 | 12.0 | 0.00 | 0.01 | 0.01 | 84 | 1013.7 |
| 20260505094508 | 51 | 4 | 4.0 | 11.0 | 0.00 | 0.01 | 0.01 | 84 | 1013.6 |
| 20260505093015 | 52 | 302 | 5.0 | 13.0 | 0.00 | 0.01 | 0.01 | 85 | 1013.6 |
| 20260505091507 | 52 | 222 | 9.0 | 14.0 | 0.00 | 0.01 | 0.01 | 85 | 1013.6 |
| 20260505090009 | 51 | 301 | 9.0 | 17.0 | 0.00 | 0.01 | 0.01 | 86 | 1013.6 |
| 20260505084508 | 51 | 292 | 10.0 | 15.0 | 0.00 | 0.01 | 0.01 | 86 | 1013.6 |
| 20260505083007 | 51 | 301 | 8.0 | 10.0 | 0.00 | 0.01 | 0.01 | 87 | 1013.6 |
| 20260505081502 | 51 | 318 | 7.0 | 11.0 | 0.00 | 0.01 | 0.01 | 87 | 1013.5 |
| 20260505080058 | 51 | 296 | 9.0 | 12.0 | 0.00 | 0.01 | 0.01 | 88 | 1013.6 |
| 20260505074556 | 50 | 299 | 6.0 | 11.0 | 0.00 | 0.01 | 0.01 | 88 | 1013.6 |
| 20260505073058 | 50 | 286 | 8.0 | 11.0 | 0.00 | 0.01 | 0.01 | 88 | 1013.6 |
| 20260505071553 | 50 | 297 | 7.0 | 10.0 | 0.00 | 0.01 | 0.01 | 88 | 1013.6 |
| 20260505070048 | 49 | 306 | 7.0 | 11.0 | 0.00 | 0.01 | 0.01 | 89 | 1013.6 |
| 20260505064548 | 49 | 258 | 2.0 | 5.0 | 0.00 | 0.01 | 0.01 | 88 | 1013.7 |
| 20260505063048 | 49 | 293 | 3.0 | 8.0 | 0.00 | 0.01 | 0.01 | 89 | 1013.8 |
| 20260505061548 | 48 | 359 | 2.0 | 5.0 | 0.00 | 0.01 | 0.01 | 88 | 1013.7 |
| 20260505060045 | 49 | 319 | 5.0 | 11.0 | 0.00 | 0.01 | 0.01 | 89 | 1013.7 |
| 20260505054545 | 49 | 50 | 2.0 | 10.0 | 0.00 | 0.01 | 0.01 | 90 | 1013.6 |
| 20260505053044 | 47 | 293 | 3.0 | 10.0 | 0.00 | 0.01 | 0.01 | 91 | 1013.6 |
| 20260505051538 | 46 | 231 | 1.0 | 7.0 | 0.00 | 0.01 | 0.01 | 90 | 1013.4 |
| 20260505041535 | 45 | 233 | 3.0 | 5.0 | 0.00 | 0.02 | 0.01 | 90 | 1013.3 |
| 20260505040034 | 45 | 230 | 3.0 | 8.0 | 0.01 | 0.02 | 0.01 | 90 | 1013.4 |
| 20260505034535 | 45 | 233 | 2.0 | 7.0 | 0.01 | 0.02 | 0.01 | 90 | 1013.3 |
| 20260505033052 | 45 | 228 | 3.0 | 8.0 | 0.01 | 0.02 | 0.01 | 90 | 1013.3 |
| 20260505031531 | 45 | 234 | 3.0 | 5.0 | 0.01 | 0.02 | 0.01 | 90 | 1013.5 |
| 20260505030030 | 45 | 233 | 3.0 | 5.0 | 0.00 | 0.01 | 0.00 | 90 | 1013.5 |
| 20260505024529 | 44 | 227 | 2.0 | 7.0 | 0.00 | 0.01 | 0.00 | 89 | 1013.5 |
| 20260505023027 | 45 | 228 | 2.0 | 4.0 | 0.00 | 0.01 | 0.00 | 89 | 1013.6 |
| 20260505021528 | 45 | 227 | 2.0 | 5.0 | 0.00 | 0.01 | 0.00 | 89 | 1013.6 |
| 20260505020024 | 45 | 229 | 3.0 | 6.0 | 0.00 | 0.01 | 0.00 | 89 | 1013.7 |
| 20260505014522 | 45 | 233 | 3.0 | 5.0 | 0.00 | 0.01 | 0.00 | 89 | 1013.8 |
| 20260505013019 | 46 | 223 | 3.0 | 5.0 | 0.00 | 0.01 | 0.00 | 89 | 1013.9 |
| 20260505011520 | 46 | 242 | 2.0 | 4.0 | 0.00 | 0.01 | 0.00 | 88 | 1013.9 |
| 20260505010015 | 46 | 242 | 2.0 | 4.0 | 0.00 | 0.01 | 0.00 | 88 | 1014.1 |
| 20260505004528 | 46 | 242 | 3.0 | 4.0 | 0.00 | 0.01 | 0.00 | 88 | 1014.1 |
| 20260505003012 | 46 | 228 | 3.0 | 5.0 | 0.00 | 0.01 | 0.00 | 88 | 1014.1 |
| 20260505001511 | 46 | 228 | 3.0 | 5.0 | 0.00 | 0.01 | 0.00 | 88 | 1014.2 |
| 20260505000014 | 46 | 229 | 2.0 | 4.0 | 0.00 | 0.01 | 0.00 | 87 | 1014.3 |
| 20260504234508 | 46 | 233 | 1.0 | 4.0 | 0.00 | 0.01 | 0.00 | 87 | 1014.3 |
| 20260504233005 | 47 | 233 | 2.0 | 3.0 | 0.00 | 0.01 | 0.00 | 87 | 1014.2 |
| 20260504231511 | 47 | 232 | 2.0 | 4.0 | 0.00 | 0.01 | 0.00 | 87 | 1014.4 |
| 20260504230101 | 48 | 224 | 4.0 | 5.0 | 0.00 | 0.01 | 0.00 | 86 | 1014.3 |
| 20260504224606 | 48 | 239 | 2.0 | 4.0 | 0.00 | 0.01 | 0.01 | 86 | 1014.4 |
| 20260504223058 | 48 | 217 | 0.0 | 4.0 | 0.00 | 0.01 | 0.01 | 86 | 1014.4 |
| 20260504221605 | 48 | 211 | 1.0 | 4.0 | 0.00 | 0.01 | 0.01 | 86 | 1014.5 |
| 20260504220057 | 48 | 222 | 2.0 | 6.0 | 0.00 | 0.01 | 0.01 | 86 | 1014.5 |
| 20260504214602 | 48 | 222 | 2.0 | 4.0 | 0.00 | 0.01 | 0.01 | 85 | 1014.5 |
| 20260504213102 | 49 | 218 | 1.0 | 3.0 | 0.00 | 0.01 | 0.01 | 84 | 1014.5 |
| 20260504211550 | 50 | 218 | 0.0 | 2.0 | 0.00 | 0.01 | 0.01 | 85 | 1014.5 |
| 20260504210056 | 50 | 218 | 1.0 | 3.0 | 0.00 | 0.01 | 0.01 | 84 | 1014.6 |
| 20260504204630 | 50 | 218 | 0.0 | 3.0 | 0.00 | 0.01 | 0.01 | 84 | 1014.6 |
| 20260504203050 | 51 | 230 | 1.0 | 3.0 | 0.00 | 0.01 | 0.01 | 83 | 1014.6 |
| 20260504201547 | 52 | 359 | 1.0 | 3.0 | 0.00 | 0.01 | 0.01 | 84 | 1014.5 |
| 20260504200053 | 52 | 297 | 2.0 | 4.0 | 0.00 | 0.01 | 0.01 | 84 | 1014.3 |
| 20260504194551 | 52 | 314 | 1.0 | 5.0 | 0.00 | 0.01 | 0.01 | 84 | 1014.2 |
| 20260504193046 | 52 | 289 | 3.0 | 5.0 | 0.00 | 0.01 | 0.01 | 84 | 1014.3 |
| 20260504191546 | 52 | 331 | 1.0 | 4.0 | 0.00 | 0.01 | 0.01 | 84 | 1014.3 |
| 20260504190054 | 52 | 297 | 1.0 | 4.0 | 0.00 | 0.01 | 0.01 | 84 | 1014.3 |
| 20260504184558 | 52 | 319 | 1.0 | 3.0 | 0.00 | 0.01 | 0.01 | 85 | 1014.2 |
| 20260504183048 | 52 | 315 | 1.0 | 4.0 | 0.00 | 0.01 | 0.01 | 85 | 1014.3 |
| 20260504181542 | 52 | 335 | 3.0 | 5.0 | 0.00 | 0.01 | 0.01 | 85 | 1014.1 |
| 20260504180041 | 53 | 297 | 0.0 | 5.0 | 0.00 | 0.01 | 0.01 | 85 | 1014.1 |
| 20260504174540 | 53 | 345 | 3.0 | 8.0 | 0.00 | 0.01 | 0.01 | 86 | 1014.0 |
| 20260504173039 | 52 | 343 | 3.0 | 8.0 | 0.00 | 0.01 | 0.01 | 85 | 1014.1 |
| 20260504171544 | 52 | 324 | 5.0 | 9.0 | 0.00 | 0.01 | 0.01 | 85 | 1014.2 |